Date String (YYYY-MM-DD hh:mm:ss) UTC,Instrument flags,Ambient pressure (hPa),Sample flow (lpm),Bypass flow (lpm),Sample temperature (°C),Ambient temperature (°C),ASC tube jacket temperature (°C),LED temperature (°C),Box temperature (°C),Sample RH (%),Span deviation,Mass concentration (μg/m³),Mass concentration (μg/m³),Mass concentration (μg/m³)
DateTimeUTC,F1_M11,P_M11,Q1_M11,Q2_M11,T1_M11,T2_M11,T3_M11,T4_M11,T5_M11,U1_M11,ZSPAN_M11,X0_M11,X2_M11,X1_M11
2022-03-22 10:00:00,,0827.3,5.01,0.00,22.1,21.4,00.0,30.9,23.9,10.5,0000.0,0005.62,0003.50,0003.17
2022-03-22 10:01:00,,0827.3,5.00,0.00,22.1,21.4,00.0,31.0,23.9,10.5,0000.0,0005.56,0003.47,0003.15
2022-03-22 10:02:00,,0827.3,5.00,0.00,22.1,21.4,00.0,31.0,23.9,10.5,0000.0,0005.28,0003.43,0003.13
2022-03-22 10:03:00,,0827.3,5.00,0.00,22.1,21.4,00.0,31.0,23.9,10.5,0000.0,0005.36,0003.43,0003.12
2022-03-22 10:04:00,,0827.4,5.01,0.00,22.1,21.3,00.0,31.0,23.8,10.5,0000.0,0005.43,0003.43,0003.11
2022-03-22 10:05:00,,0827.4,4.98,0.00,22.1,21.3,00.0,31.0,23.8,10.5,0000.0,0005.57,0003.44,0003.09
2022-03-22 10:06:00,,0827.4,5.00,0.00,22.1,21.3,00.0,31.0,23.8,10.5,0000.0,0005.54,0003.43,0003.07
2022-03-22 10:07:00,,0827.3,5.00,0.00,22.1,21.3,00.0,31.0,23.8,10.5,0000.0,0005.64,0003.44,0003.05
2022-03-22 10:08:00,,0827.3,5.00,0.00,22.1,21.3,00.0,31.0,23.8,10.6,0000.0,0005.42,0003.44,0003.04
2022-03-22 10:09:00,,0827.3,5.00,0.00,22.0,21.2,00.0,31.0,23.8,10.5,0000.0,0005.54,0003.45,0003.03
2022-03-22 10:10:00,,0827.3,5.00,0.00,22.0,21.2,00.0,31.0,23.7,10.7,0000.0,0005.80,0003.47,0003.04
2022-03-22 10:11:00,,0827.2,5.00,0.00,22.0,21.2,00.0,31.0,23.7,10.9,0000.0,0005.82,0003.49,0003.05
2022-03-22 10:12:00,,0827.3,5.00,0.00,22.0,21.2,00.0,31.0,23.7,11.1,0000.0,0005.95,0003.51,0003.05
2022-03-22 10:13:00,,0827.3,5.00,0.00,22.0,21.1,00.0,31.0,23.7,11.1,0000.0,0006.01,0003.52,0003.02
2022-03-22 10:14:00,,0827.3,4.99,0.00,22.0,21.5,00.0,31.0,23.8,11.1,0000.0,0006.05,0003.52,0003.00
2022-03-22 10:15:00,,0827.3,5.00,0.00,22.1,22.4,00.0,31.0,24.0,11.1,0000.0,0005.87,0003.49,0002.96
2022-03-22 10:16:00,,0827.3,5.01,0.00,22.3,23.1,00.0,31.1,24.3,11.0,0000.0,0005.70,0003.45,0002.91
2022-03-22 10:17:00,,0827.4,5.01,0.00,22.4,23.0,00.0,31.1,24.4,10.8,0000.0,0005.69,0003.44,0002.89
2022-03-22 10:18:00,,0827.2,5.00,0.00,22.4,22.8,00.0,31.1,24.3,10.6,0000.0,0005.72,0003.43,0002.88
2022-03-22 10:19:00,,0827.2,4.99,0.00,22.4,22.5,00.0,31.2,24.2,10.6,0000.0,0005.82,0003.46,0002.87
2022-03-22 10:20:00,,0827.2,5.01,0.00,22.3,22.2,00.0,31.2,24.2,10.6,0000.0,0005.73,0003.44,0002.86
2022-03-22 10:21:00,,0827.1,4.98,0.00,22.3,22.0,00.0,31.2,24.1,10.5,0000.0,0005.42,0003.42,0002.85
2022-03-22 10:22:00,,0827.1,5.00,0.00,22.2,21.8,00.0,31.2,23.9,10.5,0000.0,0005.38,0003.41,0002.85
2022-03-22 10:23:00,,0827.1,5.00,0.00,22.2,21.6,00.0,31.2,23.8,10.6,0000.0,0005.12,0003.37,0002.86
2022-03-22 10:24:00,,0827.1,5.01,0.00,22.1,21.4,00.0,31.1,23.7,10.7,0000.0,0005.09,0003.38,0002.89
2022-03-22 10:25:00,,0827.1,5.01,0.00,22.1,21.3,00.0,31.1,23.7,10.6,0000.0,0004.95,0003.36,0002.92
2022-03-22 10:26:00,,0827.2,5.00,0.00,22.1,21.2,00.0,31.1,23.7,10.6,0000.0,0005.21,0003.40,0002.95
2022-03-22 10:27:00,,0827.2,5.00,0.00,22.0,21.2,00.0,31.1,23.7,10.7,0000.0,0005.37,0003.46,0003.02
2022-03-22 10:28:00,,0827.2,5.00,0.00,22.0,21.1,00.0,31.1,23.7,10.8,0000.0,0005.46,0003.51,0003.08
2022-03-22 10:29:00,,0827.1,4.99,0.00,22.0,21.1,00.0,31.1,23.7,10.8,0000.0,0005.38,0003.51,0003.12
2022-03-22 10:30:00,,0827.1,5.00,0.00,22.0,21.1,00.0,31.1,23.7,10.9,0000.0,0005.31,0003.50,0003.15
2022-03-22 10:31:00,,0827.2,5.00,0.00,22.0,21.1,00.0,31.1,23.6,11.0,0000.0,0005.32,0003.50,0003.16
2022-03-22 10:32:00,,0827.2,5.00,0.00,21.9,21.0,00.0,31.1,23.6,11.1,0000.0,0005.48,0003.52,0003.18
2022-03-22 10:33:00,,0827.2,5.00,0.00,21.9,21.0,00.0,31.0,23.5,11.1,0000.0,0005.55,0003.53,0003.19
2022-03-22 10:34:00,,0827.2,5.00,0.00,21.9,21.0,00.0,31.0,23.5,11.1,0000.0,0005.83,0003.58,0003.21
2022-03-22 10:35:00,,0827.1,5.01,0.00,21.9,21.6,00.0,31.0,23.7,11.1,0000.0,0005.89,0003.58,0003.21
2022-03-22 10:36:00,,0827.6,5.00,0.00,22.1,22.4,00.0,31.1,23.9,11.0,0000.0,0006.03,0003.60,0003.21
2022-03-22 10:37:00,,0827.6,5.00,0.00,22.2,23.0,00.0,31.1,24.1,10.9,0000.0,0005.86,0003.60,0003.22
2022-03-22 10:38:00,,0827.7,5.00,0.00,22.2,22.8,00.0,31.1,24.1,10.8,0000.0,0005.83,0003.59,0003.22
2022-03-22 10:39:00,,0827.5,4.99,0.00,22.2,22.4,00.0,31.1,24.1,10.8,0000.0,0005.87,0003.58,0003.22
2022-03-22 10:40:00,,0827.7,5.02,0.00,22.2,22.2,00.0,31.1,24.0,10.8,0000.0,0005.82,0003.57,0003.22
2022-03-22 10:41:00,,0827.6,4.98,0.00,22.2,22.0,00.0,31.1,23.9,10.7,0000.0,0005.90,0003.58,0003.23
2022-03-22 10:42:00,,0827.2,5.01,0.00,22.2,21.8,00.0,31.1,23.9,10.7,0000.0,0005.98,0003.61,0003.25
2022-03-22 10:43:00,,0827.2,5.00,0.00,22.1,21.6,00.0,31.1,23.8,10.6,0000.0,0006.18,0003.67,0003.25
2022-03-22 10:44:00,,0827.2,5.00,0.00,22.1,21.5,00.0,31.1,23.8,10.6,0000.0,0006.26,0003.69,0003.26
2022-03-22 10:45:00,,0827.6,5.00,0.00,22.1,21.4,00.0,31.1,23.7,10.6,0000.0,0006.22,0003.70,0003.26
2022-03-22 10:46:00,,0827.6,5.00,0.00,22.0,21.3,00.0,31.1,23.7,10.6,0000.0,0006.22,0003.71,0003.28
2022-03-22 10:47:00,,0827.7,5.00,0.00,22.0,21.2,00.0,31.1,23.6,10.6,0000.0,0006.18,0003.71,0003.29
2022-03-22 10:48:00,,0827.6,5.00,0.00,22.0,21.1,00.0,31.1,23.6,10.6,0000.0,0006.24,0003.73,0003.29
2022-03-22 10:49:00,,0827.2,5.01,0.00,21.9,21.1,00.0,31.1,23.6,10.6,0000.0,0006.22,0003.74,0003.30
2022-03-22 10:50:00,,0827.3,4.99,0.00,21.9,21.0,00.0,31.0,23.5,10.6,0000.0,0006.11,0003.74,0003.30
2022-03-22 10:51:00,,0827.3,5.00,0.00,21.9,21.0,00.0,31.0,23.5,10.7,0000.0,0006.33,0003.78,0003.31
2022-03-22 10:52:00,,0827.3,5.01,0.00,21.9,21.1,00.0,31.0,23.5,10.6,0000.0,0006.33,0003.78,0003.30
2022-03-22 10:53:00,,0827.3,4.99,0.00,22.0,21.9,00.0,31.0,23.7,10.5,0000.0,0006.25,0003.77,0003.30
2022-03-22 10:54:00,,0827.4,5.01,0.00,22.1,22.7,00.0,31.1,24.0,10.4,0000.0,0006.42,0003.73,0003.31
2022-03-22 10:55:00,,0827.4,5.01,0.00,22.2,22.9,00.0,31.1,24.1,10.3,0000.0,0006.47,0003.70,0003.30
2022-03-22 10:56:00,,0827.4,5.00,0.00,22.2,22.6,00.0,31.1,24.1,10.3,0000.0,0006.37,0003.68,0003.30
2022-03-22 10:57:00,,0827.4,4.99,0.00,22.2,22.3,00.0,31.1,24.0,10.3,0000.0,0006.44,0003.69,0003.30
2022-03-22 10:58:00,,0827.4,5.01,0.00,22.2,22.1,00.0,31.1,23.9,10.3,0000.0,0006.47,0003.69,0003.30
2022-03-22 10:59:00,,0827.4,4.98,0.00,22.2,21.8,00.0,31.1,23.9,10.3,0000.0,0006.51,0003.70,0003.32
